Information for Mumbai Chhatrapati Shivaji

back to airport list

ICAO Code:VABB Country:India
Airport Name:Mumbai Chhatrapati Shivaji Is Hub:No
Latitude:19.0901 Longitude:72.8687
Scheduled Departures:0 Scheduled Arrivals:0
Total Past Departures:2 Total Past Arrivals:2
Pilots Based:0 Current Pilot Location:0
VABB 202030Z 11003KT 2500 HZ NSC 27/21 Q1011 NOSIG


Nearby Destination Airports

ICAO Airport Country GC Distance View
No destination airports within a 500 NM radius!


+ Show Timetable

Scheduled Departures from VABB

Flight To Destination Days Dep. Time Aircraft Info
No Scheduled Departures!


Scheduled Arrivals to VABB

Flight From Origin Days Arr. Time Aircraft Info
No Scheduled Arrivals!
+ Show Recent Flight Info

Recent Departures from VABB

Flight To Destination Pilot Flighttime Landingrate Aircraft View
ASX191 VYYY Rangum Damian Belica 03.14.51 -238 ft/m B763 View Report
ASX189 VRMM Male Intl Damian Belica 02.55.54 -178 ft/m B763 View Report


Recent Arrivals to VABB

Flight From Origin Pilot Flighttime Landingrate Aircraft View
ASX189X VRMM Male Intl Damian Belica 02.28.27 -184 ft/m B763 View Report
ASX188 OMDB Dubaj Intl. Damian Belica 02.36.22 -240 ft/m B763 View Report
+ Show Pilot Information

Pilots based at VABB

Avatar Pilot ID Name Location Rank View Profile
No Pilots are based at this airport!


Pilots currently at VABB

Avatar Pilot ID Name Location Rank On Location since View Profile
Currently there are no pilots at this airport!
- Hide Map